カタログに戻る

FENGYUN 1C DEB

運用中SSO
NORAD 30543·DEBRIS·🇨🇳 China

打ち上げ May 10, 1999 から Taiyuan Satellite Launch Center

Loading…

次のパス (今後24時間)

TLE

最新Source: Space-Track

元期: Sep 14, 2026, 12:38 UTC

1 30543U 99025AKH 26257.52670279  .00000044  00000-0  53911-4 0  9991
2 30543  98.8317 264.3052 0071588 343.1098 168.7015 14.03921283  3736

AllMySatでFENGYUN 1C DEBをリアルタイム追跡

Download on the App Store